AEN91A EGPH-EDDH

Flight info

Callsign AEN91A
Flight time 1h 26m
Altitude 37000
Route TLA DCT RENEQ DCT ROCZO DCT OGFON DCT ABFAD DCT OSTOR T904 RIBSO RIBSO7A
Aircraft A320/M-SDE3FGHIRWY/LB1

Departure

Time 2026-04-21 16:03
Airport Edinburgh Airport (EGPH)

Arrival

Time 2026-04-21 17:29
Airport Hamburg Helmut Schmidt Airport (EDDH)
Time Latitude Longitude Altitude Speed Heading
2026-04-21 15:11 55.94942 -3.36359 114 ft 0 kts 149°
2026-04-21 15:31 55.94942 -3.36360 116 ft 0 kts 149°
2026-04-21 15:50 55.94955 -3.36373 112 ft 4 kts 152°
2026-04-21 15:51 55.94980 -3.36392 114 ft 4 kts 165°
2026-04-21 15:51 55.95005 -3.36398 115 ft 4 kts 198°
2026-04-21 15:51 55.95019 -3.36383 114 ft 1 kts 239°
2026-04-21 15:51 55.95020 -3.36378 114 ft 0 kts 239°
2026-04-21 15:53 55.95020 -3.36379 116 ft 0 kts 239°
2026-04-21 15:53 55.94999 -3.36442 114 ft 16 kts 238°
2026-04-21 15:54 55.94953 -3.36575 115 ft 11 kts 238°
2026-04-21 15:54 55.94918 -3.36680 112 ft 8 kts 239°
2026-04-21 15:54 55.94916 -3.36685 112 ft 0 kts 238°
2026-04-21 15:56 55.94915 -3.36688 112 ft 2 kts 238°
2026-04-21 15:56 55.94901 -3.36729 113 ft 5 kts 240°
2026-04-21 15:57 55.94907 -3.36809 116 ft 8 kts 312°
2026-04-21 15:57 55.94923 -3.36903 113 ft 8 kts 250°
2026-04-21 15:57 55.94879 -3.37036 115 ft 17 kts 238°
2026-04-21 15:57 55.94818 -3.37212 114 ft 16 kts 238°
2026-04-21 15:58 55.94762 -3.37375 112 ft 15 kts 239°
2026-04-21 15:58 55.94712 -3.37528 115 ft 14 kts 239°
2026-04-21 15:58 55.94631 -3.37766 115 ft 26 kts 239°
2026-04-21 15:58 55.94538 -3.38037 114 ft 25 kts 239°
2026-04-21 15:59 55.94452 -3.38292 114 ft 23 kts 239°
2026-04-21 15:59 55.94371 -3.38531 114 ft 22 kts 238°
2026-04-21 15:59 55.94302 -3.38736 112 ft 15 kts 239°
2026-04-21 15:59 55.94282 -3.38846 115 ft 7 kts 282°
2026-04-21 16:00 55.94316 -3.38897 114 ft 6 kts 328°
2026-04-21 16:00 55.94321 -3.38903 113 ft 0 kts 328°
2026-04-21 16:01 55.94348 -3.38933 113 ft 9 kts 328°
2026-04-21 16:01 55.94415 -3.38960 114 ft 10 kts 28°
2026-04-21 16:01 55.94440 -3.38901 114 ft 0 kts 59°
2026-04-21 16:02 55.94440 -3.38900 114 ft 1 kts 59°
2026-04-21 16:02 55.94465 -3.38825 114 ft 29 kts 59°
2026-04-21 16:02 55.94702 -3.38125 115 ft 99 kts 58°
2026-04-21 16:03 55.95147 -3.36797 224 ft 140 kts 60°
2026-04-21 16:03 55.95632 -3.35317 1033 ft 136 kts 59°
2026-04-21 16:03 55.96151 -3.33894 1766 ft 140 kts 51°
2026-04-21 16:03 55.96935 -3.32651 2219 ft 160 kts 44°
2026-04-21 16:04 55.97818 -3.31266 2679 ft 178 kts 45°
2026-04-21 16:04 55.98795 -3.29702 3026 ft 200 kts 45°
2026-04-21 16:04 55.99900 -3.27931 3465 ft 226 kts 45°
2026-04-21 16:04 56.01104 -3.26003 4129 ft 242 kts 45°
2026-04-21 16:05 56.02391 -3.23943 5073 ft 248 kts 45°
2026-04-21 16:05 56.03691 -3.21858 5770 ft 254 kts 45°
2026-04-21 16:05 56.04743 -3.19440 5965 ft 249 kts 71°
2026-04-21 16:05 56.04917 -3.16399 6003 ft 248 kts 94°
2026-04-21 16:06 56.04735 -3.13326 6013 ft 249 kts 97°
2026-04-21 16:06 56.04422 -3.10284 6005 ft 249 kts 108°
2026-04-21 16:06 56.03545 -3.07611 6010 ft 253 kts 130°
2026-04-21 16:06 56.02182 -3.05599 6008 ft 256 kts 141°
2026-04-21 16:07 56.00751 -3.03701 6038 ft 258 kts 140°
2026-04-21 16:07 55.99283 -3.01732 6546 ft 265 kts 141°
2026-04-21 16:07 55.97702 -3.00070 6545 ft 264 kts 154°
2026-04-21 16:07 55.95893 -2.99447 6548 ft 270 kts 178°
2026-04-21 16:08 55.92297 -3.01636 6543 ft 277 kts 201°
2026-04-21 16:08 55.90538 -3.03053 6541 ft 277 kts 200°
2026-04-21 16:08 55.88780 -3.04473 6535 ft 277 kts 201°
2026-04-21 16:09 55.87022 -3.05888 6539 ft 277 kts 200°
2026-04-21 16:09 55.85265 -3.07295 6537 ft 277 kts 200°
2026-04-21 16:09 55.83505 -3.08701 6538 ft 277 kts 200°
2026-04-21 16:09 55.82339 -3.09633 6539 ft 277 kts 200°
2026-04-21 16:10 55.80556 -3.11058 6543 ft 277 kts 200°
2026-04-21 16:10 55.78822 -3.12441 6535 ft 277 kts 200°
2026-04-21 16:10 55.77040 -3.13859 6534 ft 277 kts 200°
2026-04-21 16:10 55.75307 -3.15234 6539 ft 276 kts 200°
2026-04-21 16:11 55.73555 -3.16623 6533 ft 277 kts 200°
2026-04-21 16:11 55.71802 -3.18015 6534 ft 276 kts 200°
2026-04-21 16:11 55.70050 -3.19409 6533 ft 276 kts 200°
2026-04-21 16:11 55.68296 -3.20802 6521 ft 276 kts 200°
2026-04-21 16:12 55.66546 -3.22187 6519 ft 276 kts 200°
2026-04-21 16:12 55.64790 -3.23574 6520 ft 276 kts 200°
2026-04-21 16:12 55.63039 -3.24955 6521 ft 276 kts 200°
2026-04-21 16:12 55.61280 -3.26343 6514 ft 276 kts 200°
2026-04-21 16:13 55.59529 -3.27723 6509 ft 276 kts 200°
2026-04-21 16:13 55.57776 -3.29105 6504 ft 276 kts 200°
2026-04-21 16:13 55.56023 -3.30488 6503 ft 276 kts 200°
2026-04-21 16:13 55.54233 -3.31655 6503 ft 271 kts 186°
2026-04-21 16:14 55.52390 -3.31623 6498 ft 263 kts 163°
2026-04-21 16:14 55.50741 -3.30360 6527 ft 258 kts 140°
2026-04-21 16:14 55.49514 -3.28026 7253 ft 260 kts 119°
2026-04-21 16:14 55.48849 -3.25103 8305 ft 258 kts 101°
2026-04-21 16:15 55.48496 -3.21991 9245 ft 261 kts 100°
2026-04-21 16:15 55.48157 -3.18826 10183 ft 265 kts 101°
2026-04-21 16:15 55.47813 -3.15586 10864 ft 277 kts 101°
2026-04-21 16:15 55.47440 -3.12103 11183 ft 301 kts 101°
2026-04-21 16:16 55.47037 -3.08337 11470 ft 323 kts 101°
2026-04-21 16:16 55.46613 -3.04382 12081 ft 332 kts 100°
2026-04-21 16:16 55.46092 -3.00391 12816 ft 337 kts 107°
2026-04-21 16:16 55.45147 -2.96584 13597 ft 342 kts 117°
2026-04-21 16:17 55.43975 -2.92907 14359 ft 346 kts 118°
2026-04-21 16:17 55.42789 -2.89188 15042 ft 350 kts 118°
2026-04-21 16:17 55.41591 -2.85432 15725 ft 354 kts 118°
2026-04-21 16:17 55.40379 -2.81637 16391 ft 357 kts 118°
2026-04-21 16:18 55.39152 -2.77807 17053 ft 361 kts 118°
2026-04-21 16:18 55.37910 -2.73942 17703 ft 365 kts 118°
2026-04-21 16:18 55.36653 -2.70037 18326 ft 369 kts 118°
2026-04-21 16:18 55.35388 -2.66102 18931 ft 372 kts 118°
2026-04-21 16:19 55.34110 -2.62119 19465 ft 376 kts 118°
2026-04-21 16:19 55.32819 -2.58106 20004 ft 379 kts 118°
2026-04-21 16:19 55.31512 -2.54065 20549 ft 382 kts 118°
2026-04-21 16:19 55.30194 -2.49995 21076 ft 385 kts 118°
2026-04-21 16:20 55.28883 -2.45875 21590 ft 388 kts 116°
2026-04-21 16:20 55.27870 -2.41478 22107 ft 390 kts 106°
2026-04-21 16:20 55.27239 -2.36832 22599 ft 393 kts 102°
2026-04-21 16:20 55.26662 -2.32121 23098 ft 397 kts 102°
2026-04-21 16:21 55.26077 -2.27375 23596 ft 400 kts 102°
2026-04-21 16:21 55.25480 -2.22594 24084 ft 403 kts 102°
2026-04-21 16:21 55.24875 -2.17780 24476 ft 406 kts 102°
2026-04-21 16:21 55.24262 -2.12933 24871 ft 409 kts 102°
2026-04-21 16:22 55.23644 -2.08049 25244 ft 412 kts 102°
2026-04-21 16:22 55.23022 -2.03130 25608 ft 415 kts 102°
2026-04-21 16:22 55.22393 -1.98173 25968 ft 418 kts 103°
2026-04-21 16:22 55.21752 -1.93177 26334 ft 422 kts 103°
2026-04-21 16:23 55.21108 -1.88162 26688 ft 425 kts 103°
2026-04-21 16:23 55.20458 -1.83099 27045 ft 428 kts 103°
2026-04-21 16:23 55.19801 -1.78002 27398 ft 431 kts 103°
2026-04-21 16:23 55.19136 -1.72870 27739 ft 434 kts 103°
2026-04-21 16:24 55.18463 -1.67704 28079 ft 437 kts 103°
2026-04-21 16:24 55.17783 -1.62502 28407 ft 439 kts 103°
2026-04-21 16:24 55.17099 -1.57277 28738 ft 442 kts 103°
2026-04-21 16:24 55.16410 -1.52022 29058 ft 444 kts 103°
2026-04-21 16:25 55.15716 -1.46753 29372 ft 447 kts 103°
2026-04-21 16:25 55.15012 -1.41434 29679 ft 449 kts 103°
2026-04-21 16:25 55.14303 -1.36100 29987 ft 451 kts 103°
2026-04-21 16:25 55.13593 -1.30761 30420 ft 451 kts 103°
2026-04-21 16:26 55.12881 -1.25431 30812 ft 450 kts 103°
2026-04-21 16:26 55.12168 -1.20109 31151 ft 450 kts 103°
2026-04-21 16:26 55.11450 -1.14783 31467 ft 451 kts 103°
2026-04-21 16:26 55.10728 -1.09457 31791 ft 451 kts 103°
2026-04-21 16:27 55.10004 -1.04136 32108 ft 451 kts 103°
2026-04-21 16:27 55.09278 -0.98802 32435 ft 452 kts 103°
2026-04-21 16:27 55.08548 -0.93452 32764 ft 452 kts 103°
2026-04-21 16:27 55.07817 -0.88123 33080 ft 453 kts 102°
2026-04-21 16:28 55.07078 -0.82770 33401 ft 453 kts 102°
2026-04-21 16:28 55.06337 -0.77419 33715 ft 454 kts 102°
2026-04-21 16:28 55.05594 -0.72061 34032 ft 455 kts 102°
2026-04-21 16:28 55.04848 -0.66696 34340 ft 456 kts 102°
2026-04-21 16:29 55.04096 -0.61321 34611 ft 457 kts 102°
2026-04-21 16:29 55.03341 -0.55948 34867 ft 458 kts 102°
2026-04-21 16:29 55.02580 -0.50550 35153 ft 458 kts 102°
2026-04-21 16:29 55.01823 -0.45177 35436 ft 458 kts 102°
2026-04-21 16:30 55.01063 -0.39794 35708 ft 458 kts 103°
2026-04-21 16:30 55.00298 -0.34400 35969 ft 458 kts 103°
2026-04-21 16:30 54.99535 -0.29033 36227 ft 457 kts 103°
2026-04-21 16:30 54.98767 -0.23657 36486 ft 457 kts 103°
2026-04-21 16:31 54.97996 -0.18285 36734 ft 457 kts 103°
2026-04-21 16:31 54.97224 -0.12911 36969 ft 457 kts 103°
2026-04-21 16:31 54.96448 -0.07543 37211 ft 457 kts 103°
2026-04-21 16:31 54.95670 -0.02174 37421 ft 458 kts 103°
2026-04-21 16:32 54.94887 0.03207 37492 ft 459 kts 103°
2026-04-21 16:32 54.93310 0.13976 37484 ft 459 kts 103°
2026-04-21 16:33 54.91726 0.24737 37478 ft 459 kts 103°
2026-04-21 16:33 54.90128 0.35486 37480 ft 459 kts 103°
2026-04-21 16:34 54.88525 0.46223 37477 ft 459 kts 103°
2026-04-21 16:34 54.86922 0.56886 37482 ft 459 kts 104°
2026-04-21 16:35 54.85300 0.67619 37488 ft 460 kts 104°
2026-04-21 16:35 54.83670 0.78347 37488 ft 460 kts 104°
2026-04-21 16:36 54.82024 0.89061 37492 ft 460 kts 104°
2026-04-21 16:36 54.80377 0.99764 37489 ft 459 kts 104°
2026-04-21 16:37 54.78719 1.10452 37488 ft 459 kts 104°
2026-04-21 16:37 54.77042 1.21122 37487 ft 459 kts 104°
2026-04-21 16:38 54.75363 1.31769 37486 ft 459 kts 104°
2026-04-21 16:38 54.73692 1.42425 37484 ft 459 kts 104°
2026-04-21 16:39 54.72006 1.53066 37486 ft 458 kts 104°
2026-04-21 16:39 54.70302 1.63688 37483 ft 458 kts 104°
2026-04-21 16:40 54.68588 1.74293 37484 ft 458 kts 105°
2026-04-21 16:40 54.66863 1.84884 37480 ft 458 kts 105°
2026-04-21 16:41 54.65418 1.93743 37482 ft 458 kts 105°
2026-04-21 16:41 54.63399 2.06034 37474 ft 457 kts 105°
2026-04-21 16:42 54.61648 2.16590 37477 ft 457 kts 105°
2026-04-21 16:42 54.59901 2.27124 37470 ft 457 kts 105°
2026-04-21 16:43 54.58143 2.37667 37471 ft 457 kts 105°
2026-04-21 16:43 54.56369 2.48182 37464 ft 457 kts 105°
2026-04-21 16:44 54.54587 2.58692 37470 ft 457 kts 105°
2026-04-21 16:44 54.52796 2.69191 37462 ft 457 kts 105°
2026-04-21 16:45 54.50997 2.79678 37460 ft 457 kts 105°
2026-04-21 16:45 54.49184 2.90153 37454 ft 457 kts 105°
2026-04-21 16:46 54.47367 3.00621 37453 ft 457 kts 105°
2026-04-21 16:46 54.45542 3.11069 37451 ft 457 kts 105°
2026-04-21 16:47 54.43709 3.21522 37450 ft 457 kts 106°
2026-04-21 16:47 54.41864 3.31965 37451 ft 457 kts 106°
2026-04-21 16:48 54.40012 3.42401 37450 ft 457 kts 106°
2026-04-21 16:48 54.38153 3.52829 37446 ft 457 kts 106°
2026-04-21 16:49 54.36286 3.63249 37446 ft 457 kts 106°
2026-04-21 16:49 54.34399 3.73657 37444 ft 457 kts 106°
2026-04-21 16:50 54.32502 3.84069 37442 ft 457 kts 106°
2026-04-21 16:50 54.30604 3.94464 37443 ft 457 kts 106°
2026-04-21 16:51 54.28699 4.04839 37436 ft 457 kts 107°
2026-04-21 16:51 54.26797 4.15150 37433 ft 457 kts 107°
2026-04-21 16:52 54.24860 4.25515 37429 ft 457 kts 105°
2026-04-21 16:52 54.23993 4.34460 37427 ft 455 kts 90°
2026-04-21 16:53 54.23935 4.45278 37424 ft 455 kts 90°
2026-04-21 16:53 54.23834 4.56091 37424 ft 455 kts 90°
2026-04-21 16:54 54.23713 4.66917 37426 ft 456 kts 90°
2026-04-21 16:54 54.23590 4.77745 37426 ft 455 kts 90°
2026-04-21 16:55 54.23465 4.88499 37427 ft 455 kts 90°
2026-04-21 16:55 54.23325 4.99330 37426 ft 455 kts 90°
2026-04-21 16:56 54.23178 5.10080 37427 ft 455 kts 90°
2026-04-21 16:56 54.23023 5.20898 37424 ft 455 kts 90°
2026-04-21 16:57 54.22861 5.31713 37426 ft 455 kts 91°
2026-04-21 16:57 54.22667 5.42522 37422 ft 455 kts 91°
2026-04-21 16:58 54.22468 5.53328 37422 ft 455 kts 91°
2026-04-21 16:58 54.22278 5.64130 37419 ft 455 kts 91°
2026-04-21 16:59 54.22073 5.74930 37420 ft 455 kts 91°
2026-04-21 16:59 54.21857 5.85715 37416 ft 455 kts 91°
2026-04-21 17:00 54.21630 5.96520 37418 ft 454 kts 91°
2026-04-21 17:00 54.21439 6.05552 37414 ft 454 kts 91°
2026-04-21 17:01 54.21173 6.18082 37413 ft 454 kts 91°
2026-04-21 17:01 54.20928 6.28873 37411 ft 454 kts 91°
2026-04-21 17:02 54.20664 6.39633 37415 ft 454 kts 91°
2026-04-21 17:02 54.20394 6.50396 37415 ft 453 kts 91°
2026-04-21 17:03 54.20121 6.61153 37413 ft 453 kts 91°
2026-04-21 17:03 54.19819 6.71903 37411 ft 453 kts 92°
2026-04-21 17:04 54.19494 6.82645 37409 ft 453 kts 92°
2026-04-21 17:04 54.19187 6.93310 37409 ft 453 kts 91°
2026-04-21 17:05 54.18874 7.04112 37410 ft 452 kts 91°
2026-04-21 17:05 54.18541 7.14822 37406 ft 452 kts 92°
2026-04-21 17:06 54.18198 7.25477 37404 ft 452 kts 92°
2026-04-21 17:06 54.18025 7.30893 37081 ft 453 kts 92°
2026-04-21 17:06 54.17852 7.36315 36021 ft 461 kts 92°
2026-04-21 17:06 54.17680 7.41745 35306 ft 453 kts 92°
2026-04-21 17:07 54.17506 7.47085 34162 ft 449 kts 92°
2026-04-21 17:07 54.17329 7.52309 32924 ft 443 kts 92°
2026-04-21 17:07 54.17147 7.57472 32146 ft 428 kts 92°
2026-04-21 17:07 54.16967 7.62487 31186 ft 419 kts 92°
2026-04-21 17:08 54.16788 7.67401 30134 ft 411 kts 92°
2026-04-21 17:08 54.16615 7.72226 29078 ft 403 kts 92°
2026-04-21 17:08 54.16444 7.77014 28023 ft 406 kts 92°
2026-04-21 17:08 54.16273 7.81807 26966 ft 403 kts 92°
2026-04-21 17:09 54.15602 7.91283 25722 ft 403 kts 103°
2026-04-21 17:09 54.14719 7.95806 25015 ft 403 kts 110°
2026-04-21 17:09 54.13520 8.00131 24310 ft 403 kts 114°
2026-04-21 17:10 54.12288 8.04413 23574 ft 402 kts 114°
2026-04-21 17:10 54.11066 8.08672 22897 ft 398 kts 114°
2026-04-21 17:10 54.09857 8.12887 22238 ft 394 kts 113°
2026-04-21 17:10 54.08661 8.17061 21633 ft 390 kts 113°
2026-04-21 17:11 54.07477 8.21191 21034 ft 386 kts 113°
2026-04-21 17:11 54.06306 8.25278 20458 ft 382 kts 113°
2026-04-21 17:11 54.05146 8.29324 19902 ft 378 kts 113°
2026-04-21 17:11 54.03998 8.33324 19356 ft 375 kts 113°
2026-04-21 17:12 54.02857 8.37284 18847 ft 371 kts 113°
2026-04-21 17:12 54.01723 8.41204 18295 ft 367 kts 113°
2026-04-21 17:12 54.00602 8.45072 17805 ft 362 kts 113°
2026-04-21 17:12 53.99494 8.48882 17321 ft 357 kts 114°
2026-04-21 17:13 53.98395 8.52643 16833 ft 353 kts 114°
2026-04-21 17:13 53.97306 8.56366 16366 ft 350 kts 114°
2026-04-21 17:13 53.96232 8.60051 15869 ft 348 kts 114°
2026-04-21 17:13 53.95167 8.63716 15387 ft 345 kts 114°
2026-04-21 17:14 53.94109 8.67354 14879 ft 343 kts 114°
2026-04-21 17:14 53.93054 8.70973 14357 ft 341 kts 114°
2026-04-21 17:14 53.92000 8.74574 13784 ft 340 kts 114°
2026-04-21 17:14 53.90950 8.78151 13245 ft 337 kts 114°
2026-04-21 17:15 53.89908 8.81696 12692 ft 335 kts 114°
2026-04-21 17:15 53.88873 8.85210 12128 ft 332 kts 114°
2026-04-21 17:15 53.87844 8.88697 11561 ft 330 kts 114°
2026-04-21 17:15 53.86822 8.92142 11191 ft 322 kts 114°
2026-04-21 17:16 53.85836 8.95449 11065 ft 307 kts 114°
2026-04-21 17:16 53.84893 8.98614 10935 ft 295 kts 114°
2026-04-21 17:16 53.83990 9.01654 10810 ft 283 kts 114°
2026-04-21 17:16 53.83204 9.04640 10618 ft 273 kts 106°
2026-04-21 17:17 53.82781 9.07738 10388 ft 270 kts 98°
2026-04-21 17:17 53.82176 9.10739 10337 ft 271 kts 121°
2026-04-21 17:17 53.80877 9.13087 10349 ft 275 kts 133°
2026-04-21 17:17 53.79503 9.15330 10348 ft 275 kts 132°
2026-04-21 17:18 53.78139 9.17611 10350 ft 275 kts 131°
2026-04-21 17:18 53.76792 9.19896 10352 ft 275 kts 131°
2026-04-21 17:18 53.75445 9.22191 10356 ft 275 kts 131°
2026-04-21 17:18 53.74097 9.24487 10357 ft 275 kts 131°
2026-04-21 17:19 53.72746 9.26779 10355 ft 275 kts 131°
2026-04-21 17:19 53.71400 9.29057 10147 ft 273 kts 131°
2026-04-21 17:19 53.70062 9.31323 9736 ft 272 kts 131°
2026-04-21 17:19 53.68730 9.33581 9339 ft 271 kts 131°
2026-04-21 17:20 53.67403 9.35822 8950 ft 269 kts 131°
2026-04-21 17:20 53.66083 9.38046 8568 ft 268 kts 131°
2026-04-21 17:20 53.64770 9.40258 8177 ft 266 kts 131°
2026-04-21 17:20 53.63463 9.42461 7773 ft 265 kts 131°
2026-04-21 17:21 53.62163 9.44655 7391 ft 264 kts 131°
2026-04-21 17:21 53.60869 9.46834 7002 ft 262 kts 131°
2026-04-21 17:21 53.59582 9.48996 6590 ft 259 kts 131°
2026-04-21 17:21 53.58320 9.51142 5956 ft 257 kts 130°
2026-04-21 17:22 53.57506 9.52571 5541 ft 255 kts 130°
2026-04-21 17:22 53.55924 9.55362 5236 ft 233 kts 130°
2026-04-21 17:22 53.54843 9.57246 5085 ft 217 kts 130°
2026-04-21 17:22 53.53785 9.59074 4516 ft 219 kts 130°
2026-04-21 17:23 53.52721 9.60919 4039 ft 220 kts 130°
2026-04-21 17:23 53.51663 9.62772 3688 ft 219 kts 127°
2026-04-21 17:23 53.51030 9.64988 3422 ft 209 kts 95°
2026-04-21 17:23 53.51024 9.67397 3231 ft 203 kts 85°
2026-04-21 17:24 53.51124 9.69719 3114 ft 195 kts 84°
2026-04-21 17:24 53.51230 9.71942 3020 ft 186 kts 84°
2026-04-21 17:24 53.51337 9.74053 2999 ft 175 kts 82°
2026-04-21 17:24 53.51710 9.75939 3028 ft 170 kts 60°
2026-04-21 17:25 53.52440 9.77490 3003 ft 169 kts 53°
2026-04-21 17:25 53.53193 9.78997 2875 ft 168 kts 52°
2026-04-21 17:25 53.53938 9.80489 2676 ft 166 kts 52°
2026-04-21 17:25 53.54674 9.81966 2462 ft 162 kts 52°
2026-04-21 17:26 53.55381 9.83387 2245 ft 155 kts 52°
2026-04-21 17:26 53.56065 9.84760 2032 ft 152 kts 51°
2026-04-21 17:26 53.56732 9.86102 1840 ft 143 kts 52°
2026-04-21 17:26 53.57339 9.87323 1622 ft 131 kts 52°
2026-04-21 17:27 53.57910 9.88471 1444 ft 126 kts 51°
2026-04-21 17:27 53.58470 9.89596 1236 ft 125 kts 51°
2026-04-21 17:27 53.59031 9.90722 1031 ft 125 kts 51°
2026-04-21 17:27 53.59584 9.91836 848 ft 126 kts 49°
2026-04-21 17:28 53.60144 9.92986 665 ft 125 kts 49°
2026-04-21 17:28 53.60696 9.94101 470 ft 126 kts 49°
2026-04-21 17:28 53.61265 9.95209 275 ft 125 kts 50°
2026-04-21 17:28 53.61816 9.96336 123 ft 124 kts 51°
2026-04-21 17:29 53.62353 9.97437 42 ft 112 kts 49°
2026-04-21 17:29 53.62772 9.98283 43 ft 80 kts 50°
2026-04-21 17:29 53.63075 9.98900 46 ft 59 kts 50°
2026-04-21 17:29 53.63274 9.99318 47 ft 30 kts 63°
2026-04-21 17:30 53.63285 9.99577 48 ft 14 kts 99°
2026-04-21 17:30 53.63280 9.99630 48 ft 9 kts 100°
2026-04-21 17:30 53.63276 9.99663 48 ft 1 kts 100°
2026-04-21 17:30 53.63242 9.99743 47 ft 18 kts 146°
2026-04-21 17:31 53.63141 9.99832 48 ft 16 kts 153°
2026-04-21 17:31 53.63072 9.99891 48 ft 7 kts 152°
2026-04-21 17:31 53.63031 9.99927 48 ft 6 kts 152°
2026-04-21 17:31 53.62985 9.99967 48 ft 12 kts 153°
2026-04-21 17:32 53.62953 10.00039 45 ft 12 kts 82°
2026-04-21 17:32 53.63033 10.00147 48 ft 10 kts 32°
2026-04-21 17:32 53.63098 10.00195 48 ft 11 kts
2026-04-21 17:32 53.63148 10.00204 48 ft 6 kts 32°
2026-04-21 17:33 53.63164 10.00283 48 ft 8 kts 85°
2026-04-21 17:33 53.63167 10.00358 48 ft 3 kts 86°
2026-04-21 17:33 53.63168 10.00373 48 ft 0 kts 86°